Regional Weather Roundup
Issued by NWS

Home | Current Version | Previous Version | Graphics & Text | Print | Product List | Glossary Off
Versions: 1 2 3 4 5 6 7 8 9 10 11 12 13 14 15 16 17 18 19 20 21 22 23 24 25 26 27 28 29 30 31 32 33 34 35 36 37 38 39 40 41 42 43 44 45 46 47 48 49 50

000
ASUS43 KMKX 202200
RWRWI

WISCONSIN REGIONAL WEATHER ROUNDUP
NATIONAL WEATHER SERVICE MILWAUKEE/SULLIVAN WI
500 PM CDT SUN MAY 20 2018

NOTE: "FAIR" INDICATES FEW OR NO CLOUDS BELOW 12,000 FEET WITH NO
SIGNIFICANT WEATHER AND/OR OBSTRUCTIONS TO VISIBILITY.

WIZ001-002-006>008-014>016-023>028-202300-
NORTHWEST WISCONSIN

CITY           SKY/WX    TMP DP  RH WIND       PRES   REMARKS
SUPERIOR ARPT  FAIR      66  32  28 E6        30.20F
ASHLAND        FAIR      67  31  26 NE10      30.21F
HAYWARD        FAIR      72  28  19 E10       30.17F
SIREN          FAIR      73  21  14 CALM      30.17F
CUMBERLAND     FAIR      68  30  24 NE7G17    30.17F
RICE LAKE      FAIR      72  21  14 N7        30.18F
CHETEK         FAIR      71  31  22 E3        30.17F
LADYSMITH      FAIR      71  26  18 N8        30.19F
EAU CLAIRE     NOT AVBL
MENOMONIE      FAIR      71  27  19 NE8       30.17S
NEW RICHMOND   FAIR      71  24  17 E9        30.16F
OSCEOLA          N/A     73  25  17 E10       30.18F HAZE
$$

WIZ003>005-009-010-017-018-202300-
NORTH CENTRAL WISCONSIN

CITY           SKY/WX    TMP DP  RH WIND       PRES   REMARKS
MANITOWISH WTR FAIR      68  28  22 NE6       30.19F
ARBOR VITAE    FAIR      72  27  18 N10G21    30.18F
WOODRUFF       FAIR      72  27  18 N10G21    30.18F
RHINELANDER    FAIR      70  25  18 NW6       30.19F
EAGLE RIVER    FAIR      69  21  16 E5        30.19F
LAND O LAKES   FAIR      70  23  17 NE3       30.20F
PHILLIPS       FAIR      69  29  22 NE8       30.17F
TOMAHAWK       FAIR      68  26  20 CALM      30.19F
MEDFORD        FAIR      68  28  22 E9        30.18F
MERRILL        FAIR      70  28  21 E7        30.18F
$$

WIZ029-030-035-036-043>047-202300-
CENTRAL WISCONSIN

CITY           SKY/WX    TMP DP  RH WIND       PRES   REMARKS
WAUSAU         FAIR      69  26  20 VRB5      30.16F
MOSINEE        MOSUNNY   66  28  24 E6        30.19F
MARSHFIELD     FAIR      69  34  27 E8        30.17F
STEVENS POINT  NOT AVBL
WAUPACA        FAIR      70  33  25 NE7       30.19F
WAUTOMA        FAIR      64  44  48 E6        30.19F
WISC RAPIDS    FAIR      71  31  22 E6        30.17F
CAMP DOUGLAS   CLOUDY    60  48  64 SE7       30.17F
$$

WIZ011>013-019>022-031-037>040-048>050-202300-
NORTHEAST WISCONSIN

CITY           SKY/WX    TMP DP  RH WIND       PRES   REMARKS
ANTIGO         FAIR      66  31  26 E5        30.20S
SHAWANO        FAIR      69  31  23 E6        30.19F
OCONTO         FAIR      59  24  26 E8        30.22F
STURGEON BAY   FAIR      58  28  32 SE8       30.23F
GREEN BAY      FAIR      62  22  21 NE15      30.21F
MANITOWOC      FAIR      55  32  41 NE7       30.23S
APPLETON       MOSUNNY   63  16  16 E8        30.20S
CLINTONVILLE   FAIR      67  29  23 NE7       30.19F
OSHKOSH        FAIR      62  43  49 N12       30.19F
$$

WIZ032>034-041-042-053>061-202300-
SOUTHWEST WISCONSIN

CITY           SKY/WX    TMP DP  RH WIND       PRES   REMARKS
LA CROSSE      PTSUNNY   60  50  69 VRB6      30.17F
SPARTA         CLOUDY    59  49  70 E3        30.18F
VIROQUA        CLOUDY    56  51  84 E9        30.17F
BOSCOBEL       CLOUDY    59  50  72 E5        30.17F
PRAIRIE DU CHI CLOUDY    57  49  75 E7        30.16F
PLATTEVILLE    CLOUDY    56  55  96 NE10      30.16F
$$

WIZ056-057-062-063-064-067-068-202300-
SOUTH CENTRAL WISCONSIN

CITY           SKY/WX    TMP DP  RH WIND       PRES   REMARKS
REEDSBURG      CLOUDY    59  49  69 E5        30.17F
BARABOO/DELLS  CLOUDY    59  48  66 E10       30.18F
LONE ROCK      CLOUDY    59  52  77 E8        30.17F
MINERAL POINT  CLOUDY    55  54  94 NE9       30.17F
MADISON        CLOUDY    57  51  80 E7        30.17F
MIDDLETON      CLOUDY    57  50  78 E8        30.19F
WATERTOWN      FAIR      58  50  73 E7        30.18F
MONROE         CLOUDY    55  52  88 NE13      30.16F
JANESVILLE     NOT AVBL
$$

WIZ051-052-058>065-066-070>072-202300-
SOUTHEAST WISCONSIN

CITY           SKY/WX    TMP DP  RH WIND       PRES   REMARKS
MILWAUKEE      PTSUNNY   48  41  76 N10       30.21F
WAUKESHA       CLOUDY    52  43  71 NE10      30.21F
MILWAUKEE/TIMM CLOUDY    52  37  58 NE9       30.21F
RACINE         CLOUDY    47  41  80 N9        30.22F
BURLINGTON     CLOUDY    53  43  69 NE8       30.19F
KENOSHA        FAIR      52  42  69 NE12      30.20F
FOND DU LAC    FAIR      62  47  57 N9        30.19F
SHEBOYGAN      FAIR      54  40  59 NE12      30.22F
WEST BEND      FAIR      59  45  58 NE9       30.20S
JUNEAU         FAIR      61  49  64 NE5       30.19F
$$

LSZ147-162-202300-
LAKE SUPERIOR

STATION/POSITION TIME  TEMP    WIND        PRES    WAVE
                       AIR SEA DIR/SP/G            HT/PER
                 (UTC) (F)     (DEG/KT/KT) (MB)    (FT/S)
W MID LAKE BUOY  2050   40 36  210/  8/  8 1024.2F   1
DEVILS ISLAND    2100   63     200/  6/  7 1023.5F
SAXON HARBOR     2140   55      CALM  /  2 1023.0F
$$

LMZ867-665-643>646-202300-
LAKE MICHIGAN

STATION/POSITION TIME  TEMP    WIND        PRES    WAVE
                       AIR SEA DIR/SP/G            HT/PER
                 (UTC) (F)     (DEG/KT/KT) (MB)    (FT/S)
NORTHPORT PIER   2140   49                 1023.4F
KEWAUNEE LAKESHO 2124   49      30/  6/  9 1023.1
SHEBOYGAN LAKESH 2100   43      10/  5/  6 1024.3F
PORT WASHINGTON  2140   49      50/  9/ 13 1024.0F
MILWAUKEE LAKESH 2130   44      30/ 11/ 13   N/A
KENOSHA   LAKESH 2100   43                 1023.0
$$

TC  - TEMPERATURE IN CELSIUS
VSB - VISIBILITY IN STATUTE MILES
WCI - WIND CHILL INDEX
HX  - HEAT INDEX





USA.gov is the U.S. government's official web portal to all federal, state and local government web resources and services.